Home > Weather > Norderstedt > Past weeks

Flag for Germany Past Weather in Norderstedt, Schleswig-Holstein, Germany — Yesterday and Last 2 Weeks

Now
55 °F

Drizzle. Fog.


Feels Like: 55 °F
Forecast: 52 / 65 °F
Wind: 5 mph from West

Location: Hamburg-Fuhlsbuettel

Current Time: May 26, 2016 at 10:56:26 AM

Latest Report: May 26, 2016 at 10:20 AM


Visibility: 3 mi

Pressure: 30.01 "Hg

Humidity: 94%

Dew Point: 54 °F

Location of NorderstedtLocation

Past Weather in Norderstedt — Graph

°F

Norderstedt Temperature Yesterday

Maximum temperature yesterday: 57 °F (at 1:20 PM)
Minimum temperature yesterday: 52 °F (at 3:50 AM)
Average temperature yesterday: 55 °F

High & Low Weather Summary for the Past Weeks

 TemperatureHumidityPressure
High82 °F (May 22, 2:50 PM)100% (May 15, 12:50 AM)30.04 "Hg (May 15, 12:50 AM)
Low41 °F (May 15, 3:50 AM)27% (May 19, 3:20 PM)29.59 "Hg (May 13, 3:50 PM)
Average57 °F74%29.85 "Hg
* Reported May 11 9:20 AM — May 26 9:20 AM, Norderstedt, Weather by CustomWeather, © 2016

Note: Actual official high and low records may vary slightly from our data, if they occured in-between our weather recording intervals... More about our weather records

Advertising

Norderstedt Weather History for the Previous 24 Hours

Scroll right to see more
 ConditionsComfort  
Time TempWeatherWind HumidityBarometerVisibility
9:20 AM
Thu, May 26
55 °FDrizzle. Fog.6 mph94%30.01 "Hg2 mi
8:50 AM55 °FDrizzle. Fog.3 mph94%30.01 "Hg3 mi
8:20 AM55 °FDrizzle. Fog.6 mph94%30.01 "Hg3 mi
7:50 AM55 °FDrizzle. Fog.7 mph94%29.98 "Hg3 mi
7:20 AM55 °FDrizzle. Fog.5 mph94%29.98 "Hg1 mi
6:50 AM55 °FDrizzle. Fog.5 mph94%29.98 "Hg1 mi
6:20 AM55 °FDrizzle. Fog.3 mph94%29.98 "Hg1 mi
5:50 AM55 °FDrizzle. Fog.2 mph94%29.98 "Hg1 mi
5:20 AM55 °FDrizzle. Fog.2 mph94%29.98 "Hg1 mi
4:50 AM55 °FDrizzle. Fog.3 mph94%29.98 "Hg1 mi
4:20 AM55 °FDrizzle. Fog.3 mph94%29.98 "Hg2 mi
3:50 AM55 °FDrizzle. Fog.5 mph94%29.98 "Hg2 mi
3:20 AM55 °FPassing clouds.6 mph94%29.98 "Hg2 mi
2:50 AM55 °FSprinkles. Partly cloudy.5 mph94%29.98 "Hg2 mi
2:20 AM55 °FThunderstorms. Passing clouds.5 mph94%29.98 "Hg3 mi
1:50 AM55 °FScattered showers. Passing clouds.5 mph94%29.98 "Hg4 mi
1:20 AM55 °FPassing clouds.3 mph94%29.98 "Hg4 mi
12:50 AM55 °FPassing clouds.5 mph94%29.98 "Hg4 mi
12:20 AM55 °FPassing clouds.3 mph94%29.98 "Hg4 mi
11:50 PM
Wed, May 25
55 °FPassing clouds.3 mph94%29.98 "Hg4 mi
11:20 PM55 °FPassing clouds.5 mph94%29.98 "Hg5 mi
10:50 PM55 °FPassing clouds.5 mph94%29.98 "Hg5 mi
10:20 PM55 °FPartly sunny.3 mph94%29.98 "Hg5 mi
9:50 PM55 °FPartly sunny.6 mph94%29.98 "Hg5 mi
9:20 PM55 °FPartly sunny.5 mph94%29.98 "Hg6 mi
8:50 PM57 °FPartly sunny.7 mph88%29.98 "HgN/A
8:20 PM57 °FPartly sunny.5 mph88%29.98 "Hg6 mi
7:50 PM57 °FPartly sunny.6 mph88%29.98 "Hg5 mi
7:20 PM57 °FPartly sunny.7 mph88%29.98 "Hg5 mi
6:50 PM57 °FPartly sunny.7 mph82%29.98 "Hg5 mi
6:20 PM57 °FPartly sunny.8 mph88%29.98 "HgN/A
5:50 PM57 °FPartly sunny.6 mph88%29.98 "HgN/A
5:20 PM57 °FPartly sunny.6 mph82%29.98 "HgN/A
4:50 PM57 °FPartly sunny.6 mph82%29.98 "HgN/A
4:20 PM57 °FPartly sunny.7 mph82%29.98 "HgN/A
3:50 PM57 °FPartly sunny.6 mph82%29.98 "HgN/A
3:20 PM57 °FPartly sunny.7 mph82%29.98 "HgN/A
2:50 PM57 °FPartly sunny.6 mph82%29.98 "HgN/A
2:20 PM57 °FPartly sunny.7 mph82%29.95 "HgN/A
1:50 PM57 °FPartly sunny.5 mph82%29.95 "HgN/A
1:20 PM57 °FPartly sunny.6 mph82%29.98 "Hg6 mi
12:50 PM55 °FPartly sunny.7 mph82%29.95 "Hg6 mi
12:20 PM55 °FPartly sunny.7 mph82%29.98 "Hg6 mi
11:50 AM55 °FPartly sunny.7 mph82%29.98 "HgN/A
11:20 AM55 °FPartly sunny.6 mph82%29.98 "HgN/A
10:50 AM54 °FPartly sunny.5 mph88%29.98 "HgN/A
10:20 AM54 °FPartly sunny.5 mph82%29.95 "HgN/A
Weather by CustomWeather, © 2016

See weather overviewHow to use our weather pages